This demonstration page uses our WeatherBlox Daily Observations layout. Learn more.

Left ArrowRight Arrow

31.84235, -102.49876

Hourly Observations for August 31, 2015

Temp ( °F °C ) Dew Point ( °F °C ) Humidity (%) Winds ( mph kmh ) Pressure ( in mb ) Visibility ( mi km ) Precip ( " mm )
12:53 am 00:53 Clear 74 23.3 56 13.3 54 54 S 12 19 29.91 1013 10 16 0.00 0.00
1:53 am 01:53 Clear 73 22.8 55 12.8 53 53 S 7 11 29.91 1013 10 16 0.00 0.00
2:53 am 02:53 Clear 71 21.7 55 12.8 57 57 S 6 9 29.90 1012 10 16 0.00 0.00
3:53 am 03:53 Clear 69 20.6 56 13.3 63 63 SSE 6 9 29.91 1013 10 16 0.00 0.00
4:53 am 04:53 Clear 67 19.4 56 13.3 68 68 SSE 5 7 29.90 1013 10 16 0.00 0.00
5:53 am 05:53 Clear 66 18.9 56 13.3 70 70 SSE 5 7 29.91 1013 10 16 0.00 0.00
6:53 am 06:53 Clear 67 19.4 57 13.9 71 71 S 6 9 29.92 1013 10 16 0.00 0.00
7:53 am 07:53 Sunny 68 20 57 13.9 68 68 SSE 6 9 29.93 1013 10 16 0.00 0.00
8:53 am 08:53 Sunny 72 22.2 58 14.4 61 61 S 7 11 29.95 1014 10 16 0.00 0.00
9:53 am 09:53 Sunny 77 25 58 14.4 52 52 S 10 17 29.95 1014 10 16 0.00 0.00
10:53 am 10:53 Sunny 82 27.8 57 13.9 42 42 S 10 17 29.95 1014 10 16 0.00 0.00
11:53 am 11:53 Sunny 84 28.9 54 12.2 36 36 S 9 15 29.95 1014 10 16 0.00 0.00
12:53 pm 12:53 Sunny 88 31.1 53 11.7 30 30 SE 15 24 29.93 1014 10 16 0.00 0.00
1:53 pm 13:53 Sunny 90 32.2 53 11.7 28 28 S 12 19 29.91 1013 10 16 0.00 0.00
2:53 pm 14:53 Sunny 92 33.3 51 10.6 25 25 S 14 22 29.89 1012 10 16 0.00 0.00
3:53 pm 15:53 Sunny 92 33.3 50 10 24 24 SSW 9 15 29.86 1011 10 16 0.00 0.00
4:53 pm 16:53 Sunny 93 33.9 49 9.4 22 22 SSE 13 20 29.84 1011 10 16 0.00 0.00
5:53 pm 17:53 Sunny 93 33.9 50 10 23 23 SSE 14 22 29.83 1010 10 16 0.00 0.00
6:53 pm 18:53 Sunny 92 33.3 49 9.4 23 23 S 10 17 29.82 1010 10 16 0.00 0.00
7:53 pm 19:53 Sunny 89 31.7 51 10.6 27 27 SSE 12 19 29.83 1010 10 16 0.00 0.00
8:53 pm 20:53 Clear 85 29.4 51 10.6 31 31 SSE 8 13 29.84 1011 10 16 0.00 0.00
9:53 pm 21:53 Clear 83 28.3 52 11.1 34 34 SSE 8 13 29.86 1011 10 16 0.00 0.00
10:53 pm 22:53 Clear 82 27.8 52 11.1 35 35 SSE 9 15 29.87 1012 10 16 0.00 0.00
11:53 pm 23:53 Clear 80 26.7 52 11.1 38 38 S 9 15 29.88 1012 10 16 0.00 0.00

Powered by AerisWeather